Starlink 35545

operational
NORAD ID: 66108 Int'l Des: 2025-236 Owner: SPXS Country: US Constellation: starlink
NOTLE

Starlink 35545について

説明を読み込み中...

リアルタイム位置

3D地球を読み込み中...

次回通過

高度履歴

Altitude vs Time

uPlot chart will show altitude changes over time

軌道要素

1 66108C 25236Z 25293.06229167 .00555180 00000+0 84387-3 0 2936
2 66108 53.1607 48.3596 0008657 259.7611 244.5225 16.03129324 13
Epoch: Oct 20, 2025 • Age: 20 hours

現在のステータス

高度 265.0 km
速度 7.75 km/s
衛星直下点 16.24°N, 110.2°W
打ち上げ日 Oct 19, 2025
運用期間 1 days
タイプ internet

技術仕様

分類 Payload
質量 575.00 kg
乾燥質量 530.00 kg
総質量 575.00 kg
長さ 0.30 m
直径 4.10 m
スパン 29.00 m
形状 Box + pan
製造者 SPXS
バスタイプ Starlink V2MO
フェーズステータス In Orbit
所有者/国 SPXS/US

大規模コンステレーション

Loading constellations...